Regional Weather Roundup
Issued by NWS

Home | Current Version | Previous Version | Text Only | Print | Product List | Glossary On
Versions: 1 2 3 4 5 6 7 8 9 10 11 12 13 14 15 16 17 18 19 20 21 22 23 24 25 26 27 28 29 30 31 32 33 34 35 36 37 38 39 40 41 42 43 44 45 46 47 48 49 50
000
ASUS43 KLOT 250908
RWRIL

ILLINOIS REGIONAL WEATHER ROUNDUP
NATIONAL WEATHER SERVICE CHICAGO/ROMEOVILLE IL
400 AM CDT MON JUL 25 2016

NOTE: "FAIR" INDICATES FEW OR NO CLOUDS BELOW 12,000 FEET WITH NO
SIGNIFICANT WEATHER AND/OR OBSTRUCTIONS TO VISIBILITY.

* THESE STATIONS ARE NOT UNDER NWS QUALITY CONTROL. THEY ALSO MAY NOT
  REPORT WEATHER SUCH AS PRECIPITATION OR FOG.

ILZ001-002-007-009-015-016-024-251000-
NORTHWEST ILLINOIS

CITY           SKY/WX    TMP DP  RH WIND       PRES   REMARKS
MOLINE         CLOUDY    73  66  78 CALM      30.00R
STERLING*      CLEAR     70  68  93 SW3       30.00S
SAVANNA*       CLOUDY    72  66  83 CALM      30.00R
$$

ILZ003-004-008-010-011-017-018-251000-
NORTH CENTRAL ILLINOIS

CITY           SKY/WX    TMP DP  RH WIND       PRES   REMARKS
ROCKFORD       CLOUDY    77  67  71 CALM      29.99S
FREEPORT*      CLOUDY    69  66  89 NW3       30.01S
ROCHELLE*      CLOUDY    69  67  96 S3        30.01R
DE KALB*       CLOUDY    70  68  93 W5        30.01R
$$

ILZ005-006-012>014-019>023-251000-
NORTHEAST ILLINOIS

CITY           SKY/WX    TMP DP  RH WIND       PRES   REMARKS
CHICAGO-OHARE  CLOUDY    74  68  81 W9        29.96F
CHICAGO-MIDWAY CLOUDY    76  66  71 SW7       29.95F
AURORA         CLOUDY    73  70  90 W5        29.99R
LANSING*       CLOUDY    73  65  78 W13       29.96S
JOLIET*        CLOUDY    76  70  83 SW6       29.97S
WAUKEGAN       CLOUDY    75  67  76 CALM      29.94S
DUPAGE AIRPORT CLOUDY    74  68  81 SW7       29.98R
KANKAKEE*      CLOUDY    70  67  92 W5        29.98F
WHEELING       MOCLDY    74  68  81 SW5       29.97F
MORRIS*        CLOUDY    74  70  88 SW5       29.97R
ROMEOVILLE*    CLOUDY    74  66  76 SW6       29.98R
NORTHERLY ISL    N/A     75  64  68 W8          N/A
$$

LMZ740>746-251000-
SOUTHERN LAKE MICHIGAN

STATION/POSITION SKY/WX   TEMP    WIND        PRES    VSBY  WAVE
                          AIR SEA DIR/SP/G                  HT/PER
                          (F)     (DEG/KT/KT) (MB)    (MI)  (FT/S)
SOUTHERN BUOY              74 72  250/ 10/ 10 1012.6S         2/ 4
WILMETTE HARBOR            69 63  280/ 10/ 12   N/A           1/ 2
HARRISON CRIB              78     240/ 20/ 23   N/A
BURNHAM HARBOR             75     260/  4/ 10   N/A
CALUMET HARBOR             74     230/  6/ 12 1014.0F
BURNS HARBOR               73     250/ 10/ 20 1014.9R
MICHIGAN CITY              74     230/ 21/ 23   N/A
MICHIGAN CITY 6N           74 74  270/ 16/ 19   N/A           3/ 4
ST. JOSEPH                 74 73  260/ 12/ 16 1013.3R         4/ 4
$$

ILZ025>027-034>036-040-047-049-050-058-095>099-251000-
WEST-CENTRAL ILLINOIS

CITY           SKY/WX    TMP DP  RH WIND       PRES   REMARKS
QUINCY         CLOUDY    75  72  90 NW7       30.01R
GALESBURG*     CLOUDY    70  68  93 CALM      30.01F
MACOMB*        CLOUDY    73  71  95 CALM      30.03S
JACKSONVILLE*  CLOUDY    74  71  92 SE6       30.01R
PITTSFIELD*    CLOUDY    72  69  92 S13G24    30.02R
$$

ILZ028>032-037-038-041>044-048-051>054-059>061-251000-
CENTRAL ILLINOIS

CITY           SKY/WX    TMP DP  RH WIND       PRES   REMARKS
PONTIAC        CLOUDY    73  70  92 SW5       29.99F
DECATUR        CLOUDY    71  68  90 S6        29.96F
PEORIA         CLOUDY    74  72  93 NW5       29.99F
LACON*         PTCLDY    74  71  90 W3        29.99S
LINCOLN*       CLOUDY    73  72  97 SW3       29.97F
SPRINGFIELD    MOCLDY    73  69  87 S10       29.98F
TAYLORVILLE    CLOUDY    71  70  96 CALM      29.99F
$$

ILZ033-039-045-046-055>057-062-063-251000-
EAST-CENTRAL ILLINOIS

CITY           SKY/WX    TMP DP  RH WIND       PRES   REMARKS
CHAMPAIGN      LGT RAIN  71  67  87 SW12      29.94F
MATTOON        LGT RAIN  71  68  90 CALM      29.96F
PARIS*         CLOUDY    69  69  99 CALM      29.97F
$$

ILZ079-100>102-251000-
SOUTHWEST ILLINOIS

CITY           SKY/WX    TMP DP  RH WIND       PRES   REMARKS
ALTON          TSTM      73  72  95 W9G16     30.07R
BELLEVILLE     CLOUDY    77  76  98 NW13G20   30.03R THUNDER
CAHOKIA*       TSTM      74  70  87 NW10      30.05R
SPARTA*        CLOUDY    79  77  94 CALM      30.02R HX  83
$$

ILZ064>066-069>071-074>076-080>082-084>086-088>090-092>094-251000-
SOUTH-CENTRAL ILLINOIS

CITY           SKY/WX    TMP DP  RH WIND       PRES   REMARKS
CARBONDALE     CLEAR     76  74  93 N7        29.99R FOG
CAIRO*         PTCLDY    76  76 100 NW3       29.99S FOG
EFFINGHAM*     CLOUDY    74  73  96 CALM      30.00R
MARION         PTCLDY    79  77  94 CALM      29.99F HX  83
MT. VERNON     CLOUDY    77  68  73 CALM      30.00S
CENTRALIA*     CLOUDY    76  73  88 E3        29.99F
SALEM*         CLOUDY    76  70  82 CALM      30.00F
METROPOLIS*      N/A     76  75  98 CALM      29.99S FOG
$$

ILZ067-068-072-073-078-083-087-091-251000-
SOUTHEAST ILLINOIS

CITY           SKY/WX    TMP DP  RH WIND       PRES   REMARKS
LAWRENCEVILLE  CLOUDY    73  70  90 E3        30.00F
FLORA*         CLOUDY    74  71  91 E3        29.99F
FAIRFIELD*     MOCLDY    74  70  87 NE3       29.99F
HARRISBURG*    CLOUDY    77  77  99 NE3       30.00R FOG
ROBINSON*      MOCLDY    69  69  98 SE5       30.01S
CARMI*         RAIN      75  72  89 NE6       30.00S
$$

ABBREVIATIONS USED IN REMARKS
   TC - TEMPERATURE IN CELSIUS
  WCI - WIND CHILL INDEX
   HX - HEAT INDEX
  VSB - VISIBILITY
$$




USA.gov is the U.S. government's official web portal to all federal, state and local government web resources and services.